| time (UTC) | temp F | wind direction | speed MPH | gust MPH | rain 1hr in | rain 24hr in | rain mn in | humidity % | barometer mb |
| 20260903020021 | 75 | 116 | 0.0 | 0.0 | 0.00 | 1.27 | 0.99 | 92 | 1016.4 |
| 20260903014555 | 75 | 124 | 0.0 | 1.0 | 0.00 | 1.27 | 0.99 | 92 | 1016.4 |
| 20260903013013 | 75 | 131 | 0.0 | 0.0 | 0.00 | 1.27 | 0.99 | 92 | 1016.6 |
| 20260903011600 | 75 | 131 | 0.0 | 0.0 | 0.00 | 1.27 | 0.99 | 92 | 1016.7 |
| 20260903011501 | 75 | 131 | 0.0 | 0.0 | 0.00 | 1.27 | 0.99 | 92 | 1016.7 |
| 20260903010058 | 75 | 131 | 0.0 | 0.0 | 0.00 | 1.27 | 0.99 | 92 | 1016.6 |
| 20260903004538 | 75 | 131 | 0.0 | 0.0 | 0.00 | 1.27 | 0.99 | 92 | 1016.5 |
| 20260903003102 | 75 | 131 | 0.0 | 0.0 | 0.00 | 1.27 | 0.99 | 92 | 1016.3 |
| 20260903003001 | 75 | 131 | 0.0 | 0.0 | 0.00 | 1.27 | 0.99 | 92 | 1016.3 |
| 20260903001522 | 75 | 134 | 0.0 | 0.0 | 0.00 | 1.27 | 0.99 | 92 | 1016.3 |
| 20260903000039 | 75 | 81 | 0.0 | 4.0 | 0.00 | 1.27 | 0.99 | 92 | 1016.4 |
| 20260902234605 | 75 | 113 | 0.0 | 4.0 | 0.00 | 1.27 | 0.99 | 92 | 1016.2 |
| 20260902233025 | 75 | 126 | 0.0 | 0.0 | 0.00 | 1.27 | 0.99 | 92 | 1016.5 |
| 20260902231607 | 75 | 126 | 0.0 | 2.0 | 0.00 | 1.27 | 0.99 | 92 | 1016.3 |
| 20260902230046 | 76 | 104 | 0.0 | 0.0 | 0.00 | 1.27 | 0.99 | 92 | 1016.4 |
| 20260902224505 | 76 | 108 | 0.0 | 1.0 | 0.00 | 1.27 | 0.99 | 92 | 1016.2 |
| 20260902223041 | 76 | 107 | 0.0 | 0.0 | 0.00 | 1.27 | 0.99 | 92 | 1016.3 |
| 20260902221516 | 76 | 124 | 0.0 | 1.0 | 0.00 | 1.27 | 0.99 | 92 | 1016.9 |
| 20260902220039 | 76 | 124 | 0.0 | 1.0 | 0.00 | 1.27 | 0.99 | 92 | 1016.9 |
| 20260902214555 | 76 | 128 | 0.0 | 1.0 | 0.01 | 1.27 | 0.99 | 92 | 1016.8 |
| 20260902213039 | 76 | 118 | 0.0 | 0.0 | 0.01 | 1.27 | 0.99 | 92 | 1016.9 |
| 20260902211604 | 76 | 118 | 0.0 | 0.0 | 0.01 | 1.27 | 0.99 | 92 | 1016.8 |
| 20260902211505 | 76 | 118 | 0.0 | 0.0 | 0.01 | 1.27 | 0.99 | 92 | 1016.9 |
| 20260902210030 | 75 | 274 | 0.0 | 1.0 | 0.01 | 1.27 | 0.99 | 92 | 1016.6 |
| 20260902204512 | 75 | 108 | 0.0 | 5.0 | 0.00 | 1.26 | 0.98 | 92 | 1015.6 |
| 20260902203046 | 75 | 110 | 1.0 | 5.0 | 0.00 | 1.26 | 0.98 | 91 | 1014.9 |
| 20260902200053 | 76 | 98 | 0.0 | 2.0 | 0.00 | 1.26 | 0.98 | 89 | 1015.5 |
| 20260902194531 | 77 | 103 | 0.0 | 0.0 | 0.00 | 1.26 | 0.98 | 87 | 1017.2 |
| 20260902193043 | 77 | 103 | 0.0 | 0.0 | 0.00 | 1.26 | 0.98 | 87 | 1018.6 |
| 20260902191543 | 78 | 266 | 0.0 | 2.0 | 0.00 | 1.26 | 0.98 | 85 | 1018.5 |
| 20260902190051 | 78 | 122 | 0.0 | 3.0 | 0.00 | 1.26 | 0.98 | 85 | 1018.1 |
| 20260902184523 | 78 | 108 | 0.0 | 3.0 | 0.00 | 1.26 | 0.98 | 85 | 1018.1 |
| 20260902183102 | 78 | 122 | 0.0 | 4.0 | 0.00 | 1.26 | 0.98 | 86 | 1017.9 |
| 20260902181512 | 78 | 133 | 0.0 | 5.0 | 0.00 | 1.26 | 0.98 | 86 | 1018.3 |
| 20260902180049 | 78 | 281 | 0.0 | 6.0 | 0.00 | 1.26 | 0.98 | 87 | 1018.4 |
| 20260902174513 | 78 | 119 | 0.0 | 4.0 | 0.00 | 1.26 | 0.98 | 88 | 1018.5 |
| 20260902173050 | 79 | 118 | 1.0 | 3.0 | 0.00 | 1.26 | 0.98 | 88 | 1018.2 |
| 20260902171515 | 78 | 275 | 0.0 | 3.0 | 0.00 | 1.26 | 0.98 | 90 | 1018.1 |
| 20260902170048 | 78 | 127 | 0.0 | 7.0 | 0.00 | 1.26 | 0.98 | 91 | 1017.8 |
| 20260902164513 | 78 | 117 | 2.0 | 6.0 | 0.00 | 1.26 | 0.98 | 92 | 1017.9 |
| 20260902163109 | 78 | 354 | 0.0 | 5.0 | 0.00 | 1.26 | 0.98 | 94 | 1017.8 |
| 20260902161519 | 77 | 130 | 0.0 | 7.0 | 0.00 | 1.26 | 0.98 | 94 | 1017.8 |
| 20260902160059 | 77 | 130 | 1.0 | 7.0 | 0.00 | 1.26 | 0.98 | 94 | 1017.7 |
| 20260902154525 | 77 | 253 | 0.0 | 5.0 | 0.00 | 1.26 | 0.98 | 95 | 1017.8 |
| 20260902153056 | 77 | 290 | 0.0 | 5.0 | 0.00 | 1.26 | 0.98 | 95 | 1017.8 |
| 20260902151540 | 76 | 112 | 0.0 | 6.0 | 0.00 | 1.26 | 0.98 | 95 | 1017.7 |
| 20260902150013 | 76 | 6 | 0.0 | 5.0 | 0.00 | 1.26 | 0.98 | 96 | 1017.9 |
| 20260902144539 | 76 | 93 | 0.0 | 1.0 | 0.00 | 1.26 | 0.98 | 96 | 1017.9 |
| 20260902143014 | 75 | 111 | 0.0 | 3.0 | 0.00 | 1.26 | 0.98 | 96 | 1018.0 |
| 20260902141552 | 75 | 141 | 0.0 | 1.0 | 0.00 | 1.26 | 0.98 | 96 | 1018.1 |
| 20260902140013 | 75 | 123 | 0.0 | 3.0 | 0.00 | 1.26 | 0.98 | 96 | 1017.7 |
| 20260902134542 | 75 | 123 | 0.0 | 1.0 | 0.00 | 1.26 | 0.98 | 96 | 1017.7 |
| 20260902133015 | 75 | 102 | 0.0 | 2.0 | 0.00 | 1.26 | 0.98 | 96 | 1017.3 |
| 20260902131545 | 75 | 120 | 0.0 | 2.0 | 0.00 | 1.26 | 0.98 | 96 | 1017.1 |
| 20260902130013 | 75 | 119 | 0.0 | 3.0 | 0.00 | 1.26 | 0.98 | 96 | 1017.0 |
| 20260902124535 | 74 | 111 | 0.0 | 0.0 | 0.00 | 1.26 | 0.98 | 96 | 1017.1 |
| 20260902123047 | 74 | 101 | 0.0 | 0.0 | 0.00 | 1.26 | 0.98 | 96 | 1017.1 |
| 20260902121559 | 74 | 245 | 0.0 | 0.0 | 0.00 | 1.26 | 0.98 | 96 | 1017.1 |
| 20260902120017 | 73 | 245 | 0.0 | 0.0 | 0.00 | 1.26 | 0.98 | 96 | 1017.2 |
| 20260902114555 | 73 | 245 | 0.0 | 0.0 | 0.00 | 1.26 | 0.98 | 96 | 1017.0 |
| 20260902113039 | 72 | 245 | 0.0 | 0.0 | 0.00 | 1.26 | 0.98 | 96 | 1017.0 |
| 20260902111606 | 72 | 245 | 0.0 | 0.0 | 0.00 | 1.26 | 0.98 | 96 | 1017.0 |
| 20260902111501 | 72 | 245 | 0.0 | 0.0 | 0.00 | 1.26 | 0.98 | 96 | 1017.0 |
| 20260902110044 | 71 | 245 | 0.0 | 0.0 | 0.00 | 1.26 | 0.98 | 96 | 1016.8 |
| 20260902104503 | 71 | 245 | 0.0 | 0.0 | 0.00 | 1.26 | 0.98 | 96 | 1016.7 |
| 20260902103026 | 71 | 245 | 0.0 | 0.0 | 0.00 | 1.26 | 0.98 | 96 | 1016.4 |
| 20260902101505 | 71 | 245 | 0.0 | 0.0 | 0.00 | 1.26 | 0.98 | 96 | 1016.3 |
| 20260902100045 | 71 | 245 | 0.0 | 0.0 | 0.00 | 1.26 | 0.98 | 96 | 1016.2 |
| 20260902094513 | 71 | 245 | 0.0 | 0.0 | 0.00 | 1.26 | 0.98 | 96 | 1016.2 |
| 20260902093028 | 72 | 245 | 0.0 | 0.0 | 0.00 | 1.26 | 0.98 | 96 | 1016.1 |
| 20260902091511 | 72 | 127 | 0.0 | 0.0 | 0.00 | 1.26 | 0.98 | 96 | 1015.9 |
| 20260902090045 | 72 | 203 | 0.0 | 0.0 | 0.00 | 1.26 | 0.98 | 96 | 1015.7 |
| 20260902084511 | 72 | 203 | 0.0 | 0.0 | 0.00 | 1.26 | 0.98 | 96 | 1015.5 |
| 20260902083046 | 72 | 203 | 0.0 | 0.0 | 0.00 | 1.26 | 0.98 | 96 | 1015.4 |
| 20260902081511 | 72 | 203 | 0.0 | 0.0 | 0.00 | 1.26 | 0.98 | 96 | 1015.1 |
| 20260902080025 | 72 | 120 | 0.0 | 0.0 | 0.00 | 1.26 | 0.98 | 96 | 1015.0 |
| 20260902074511 | 72 | 120 | 0.0 | 0.0 | 0.00 | 1.26 | 0.98 | 96 | 1014.8 |
| 20260902073049 | 72 | 120 | 0.0 | 0.0 | 0.00 | 1.26 | 0.98 | 96 | 1014.8 |
| 20260902071527 | 72 | 120 | 0.0 | 0.0 | 0.00 | 1.26 | 0.98 | 95 | 1015.0 |
| 20260902070059 | 72 | 120 | 0.0 | 0.0 | 0.00 | 1.26 | 0.98 | 95 | 1015.1 |
| 20260902070000 | 72 | 120 | 0.0 | 0.0 | 0.00 | 1.26 | 0.98 | 95 | 1015.0 |
| 20260902064527 | 72 | 283 | 0.0 | 0.0 | 0.00 | 1.26 | 0.98 | 95 | 1014.9 |
| 20260902063007 | 72 | 283 | 0.0 | 0.0 | 0.00 | 1.26 | 0.98 | 95 | 1015.0 |
| 20260902061531 | 72 | 283 | 0.0 | 0.0 | 0.01 | 1.26 | 0.98 | 95 | 1015.2 |
| 20260902060052 | 72 | 283 | 0.0 | 0.0 | 0.75 | 1.26 | 0.98 | 95 | 1015.2 |
| 20260902054525 | 72 | 283 | 0.0 | 0.0 | 0.96 | 1.26 | 0.98 | 95 | 1015.1 |
| 20260902053051 | 72 | 287 | 0.0 | 1.0 | 0.97 | 1.26 | 0.98 | 95 | 1015.2 |
| 20260902051519 | 72 | 290 | 0.0 | 3.0 | 0.96 | 1.24 | 0.97 | 94 | 1015.7 |
| 20260902044513 | 73 | 165 | 0.0 | 1.0 | 0.02 | 0.30 | 0.02 | 93 | 1016.4 |
| 20260902043046 | 72 | 116 | 0.0 | 1.0 | 0.02 | 0.28 | 0.01 | 93 | 1015.5 |
| 20260902041521 | 73 | 178 | 0.0 | 2.0 | 0.13 | 0.28 | 0.00 | 93 | 1015.6 |
| 20260902040059 | 73 | 115 | 0.0 | 7.0 | 0.28 | 0.28 | 0.00 | 93 | 1015.7 |
| 20260902034522 | 73 | 97 | 0.0 | 7.0 | 0.28 | 0.28 | 0.28 | 93 | 1015.3 |
| 20260902033058 | 73 | 120 | 0.0 | 1.0 | 0.27 | 0.27 | 0.27 | 91 | 1015.0 |
| 20260902031523 | 75 | 262 | 0.0 | 5.0 | 0.16 | 0.16 | 0.17 | 89 | 1016.0 |
| 20260902030057 | 78 | 270 | 1.0 | 6.0 | 0.00 | 0.00 | 0.00 | 81 | 1015.8 |
| 20260902024520 | 80 | 274 | 0.0 | 4.0 | 0.00 | 0.00 | 0.00 | 80 | 1014.9 |
| 20260902023101 | 80 | 274 | 0.0 | 0.0 | 0.00 | 0.00 | 0.00 | 84 | 1013.6 |
| 20260902021523 | 80 | 274 | 0.0 | 0.0 | 0.00 | 0.00 | 0.00 | 84 | 1013.6 |